Simultaneous Nadir Overpasses (SNOs) Predictions

Prediction of SNOs between TERRA and METOP-C Satellite Orbit:

Table of predicted SNOs for the next 14.0 days since TLE Epoch: 3/26/2022
Index Date (TERRA) Time (TERRA) Lat,Lon (TERRA) SZA (TERRA ) Date (METOP-C) Time (METOP-C) Lat,Lon (METOP-C) SZA (METOP-C ) Distance(km) Time Diff (sec)
1 03/28/2022 20:44:54 81.20, -88.99 80.12 03/28/2022 20:44:13 81.19, -89.16 80.08 3.08 41
2 03/28/2022 21:34:20 -81.22, 78.92 99.86 03/28/2022 21:34:52 -81.21, 78.91 99.85 0.69 32
3 03/31/2022 16:19:03 81.20, -22.60 79.04 03/31/2022 16:18:35 81.20, -22.53 79.04 1.13 28
4 03/31/2022 17:08:29 -81.22, 145.34 100.93 03/31/2022 17:09:14 -81.22, 145.51 100.90 2.82 45
5 04/03/2022 11:53:12 81.19, 43.70 77.96 04/03/2022 11:52:58 81.19, 43.68 77.96 0.53 14
6 04/03/2022 12:42:38 -81.21,-148.33 102.01 04/03/2022 12:43:37 -81.21,-148.32 101.98 0.36 59
7 04/06/2022 06:38:00 -81.03, -59.87 103.44 04/06/2022 06:36:46 -81.10, -60.07 103.43 8.94 74
8 04/06/2022 07:27:19 81.20, 110.28 76.93 04/06/2022 07:27:19 81.20, 110.24 76.93 0.55 0
9 04/06/2022 08:16:45 -81.22, -81.74 103.03 04/06/2022 08:17:58 -81.22, -81.79 103.01 1.03 73
10 04/09/2022 02:12:02 -81.18, 8.79 104.13 04/09/2022 02:11:02 -81.18, 8.68 104.17 1.86 60



Historial Predications of SNOs between TERRA and METOP-C
